Tracking 21045 objects as of 4-Aug-2020
HD Live streaming from Space Station
objects crossing your sky now

COSMOS 2275 (GLONASS)

Track COSMOS 2275 (GLONASS) now!
COSMOS 2275 (GLONASS) is classified as:


NORAD ID: 23045
Int'l Code: 1994-021C
Perigee: 19,069.8 km
Apogee: 19,204.3 km
Inclination: 64.8 °
Period: 675.7 minutes
Semi major axis: 25508 km
RCS: 3.4477 m2 (large)
Launch date: April 11, 1994
Source: Commonwealth of Independent States (former USSR) (CIS)
Launch site: TYURATAM MISSILE AND SPACE COMPLEX (TTMTR)
aabbcc
Your satellite tracking list
Your tracking list is empty




NASA's NSSDC Master Catalog

Two Line Element Set (TLE):
1 23045U 94021C   20213.97289729 -.00000065  00000-0  00000+0 0  9992
2 23045  64.7868  15.7620 0026366  40.0468 357.7501  2.13101979204761
Source of the keplerian elements: AFSPC